| time (UTC) | temp F | wind direction | speed knots | gust knots | rain 1hr in | rain 24hr in | rain mn in | humidity % | barometer mb |
| 20260505101542 | 60 | 52 | 3.5 | 12.2 | 0.00 | 0.00 | 0.00 | 32 | 1010.6 |
| 20260505100046 | 59 | 109 | 3.5 | 11.3 | 0.00 | 0.00 | 0.00 | 34 | 1010.6 |
| 20260505094541 | 58 | 44 | 3.5 | 9.6 | 0.00 | 0.00 | 0.00 | 36 | 1010.4 |
| 20260505093046 | 50 | 0 | 0.9 | 3.5 | 0.00 | 0.00 | 0.00 | 52 | 1010.4 |
| 20260505091553 | 50 | 0 | 0.0 | 2.6 | 0.00 | 0.00 | 0.00 | 55 | 1010.4 |
| 20260505090053 | 50 | 0 | 0.0 | 3.5 | 0.00 | 0.00 | 0.00 | 55 | 1010.2 |
| 20260505084538 | 54 | 101 | 0.9 | 10.4 | 0.00 | 0.00 | 0.00 | 50 | 1010.1 |
| 20260505083047 | 51 | 170 | 0.0 | 6.1 | 0.00 | 0.00 | 0.00 | 57 | 1010.0 |
| 20260505081542 | 53 | 0 | 0.0 | 2.6 | 0.00 | 0.00 | 0.00 | 49 | 1009.9 |
| 20260505080050 | 51 | 276 | 0.0 | 5.2 | 0.00 | 0.00 | 0.00 | 54 | 1009.9 |
| 20260505074542 | 51 | 0 | 0.0 | 2.6 | 0.00 | 0.00 | 0.00 | 56 | 1009.8 |
| 20260505073050 | 51 | 0 | 0.0 | 0.0 | 0.00 | 0.00 | 0.00 | 55 | 1009.8 |
| 20260505071543 | 52 | 0 | 0.0 | 1.7 | 0.00 | 0.00 | 0.00 | 55 | 1009.7 |
| 20260505070038 | 52 | 0 | 0.0 | 0.0 | 0.00 | 0.00 | 0.00 | 54 | 1009.5 |
| 20260505064537 | 52 | 0 | 0.0 | 3.5 | 0.00 | 0.00 | 0.00 | 54 | 1009.3 |
| 20260505063048 | 53 | 0 | 0.0 | 2.6 | 0.00 | 0.00 | 0.00 | 54 | 1009.2 |
| 20260505061541 | 54 | 0 | 0.0 | 3.5 | 0.00 | 0.00 | 0.00 | 52 | 1009.2 |
| 20260505060039 | 54 | 0 | 0.0 | 1.7 | 0.00 | 0.00 | 0.00 | 51 | 1009.4 |
| 20260505054610 | 55 | 0 | 0.0 | 1.7 | 0.00 | 0.00 | 0.00 | 49 | 1009.3 |
| 20260505053045 | 57 | 0 | 0.0 | 0.9 | 0.00 | 0.00 | 0.00 | 45 | 1008.9 |
| 20260505051542 | 58 | 0 | 0.0 | 3.5 | 0.00 | 0.00 | 0.00 | 43 | 1008.9 |
| 20260505041548 | 61 | 18 | 0.9 | 5.2 | 0.00 | 0.00 | 0.00 | 38 | 1008.2 |
| 20260505040045 | 60 | 18 | 1.7 | 3.5 | 0.00 | 0.00 | 0.00 | 42 | 1008.0 |
| 20260505034541 | 61 | 19 | 1.7 | 4.3 | 0.00 | 0.00 | 0.00 | 41 | 1008.2 |
| 20260505033041 | 64 | 5 | 0.9 | 7.8 | 0.00 | 0.00 | 0.00 | 33 | 1008.1 |
| 20260505031541 | 67 | 19 | 0.9 | 3.5 | 0.00 | 0.00 | 0.00 | 27 | 1008.2 |
| 20260505030056 | 69 | 32 | 0.9 | 5.2 | 0.00 | 0.00 | 0.00 | 24 | 1007.9 |
| 20260505024543 | 71 | 22 | 1.7 | 4.3 | 0.00 | 0.00 | 0.00 | 22 | 1008.1 |
| 20260505023037 | 72 | 27 | 2.6 | 4.3 | 0.00 | 0.00 | 0.00 | 21 | 1008.0 |
| 20260505021550 | 72 | 0 | 0.9 | 4.3 | 0.00 | 0.00 | 0.00 | 20 | 1007.9 |
| 20260505020050 | 74 | 38 | 1.7 | 8.7 | 0.00 | 0.00 | 0.00 | 19 | 1007.9 |
| 20260505014540 | 74 | 46 | 2.6 | 8.7 | 0.00 | 0.00 | 0.00 | 18 | 1008.0 |
| 20260505013037 | 75 | 32 | 4.3 | 10.4 | 0.00 | 0.00 | 0.00 | 17 | 1008.0 |
| 20260505011544 | 75 | 43 | 6.1 | 9.6 | 0.00 | 0.00 | 0.00 | 17 | 1008.5 |
| 20260505010103 | 76 | 38 | 4.3 | 12.2 | 0.00 | 0.00 | 0.00 | 17 | 1008.3 |
| 20260505004539 | 77 | 112 | 3.5 | 12.2 | 0.00 | 0.00 | 0.00 | 16 | 1008.2 |
| 20260505003047 | 77 | 53 | 4.3 | 11.3 | 0.00 | 0.00 | 0.00 | 17 | 1007.9 |
| 20260505001540 | 77 | 44 | 4.3 | 11.3 | 0.00 | 0.00 | 0.00 | 16 | 1008.1 |
| 20260505000053 | 77 | 61 | 6.1 | 15.6 | 0.00 | 0.00 | 0.00 | 15 | 1008.1 |
| 20260504234541 | 78 | 42 | 3.5 | 12.2 | 0.00 | 0.00 | 0.00 | 17 | 1007.9 |
| 20260504233049 | 79 | 23 | 3.5 | 8.7 | 0.00 | 0.00 | 0.00 | 16 | 1008.1 |
| 20260504231538 | 77 | 46 | 3.5 | 8.7 | 0.00 | 0.00 | 0.00 | 17 | 1008.1 |
| 20260504230104 | 77 | 24 | 3.5 | 12.2 | 0.00 | 0.00 | 0.00 | 16 | 1008.3 |
| 20260504224558 | 78 | 355 | 1.7 | 11.3 | 0.00 | 0.00 | 0.00 | 19 | 1008.3 |
| 20260504223048 | 78 | 18 | 4.3 | 10.4 | 0.00 | 0.00 | 0.00 | 17 | 1008.2 |
| 20260504221539 | 77 | 341 | 1.7 | 11.3 | 0.00 | 0.00 | 0.00 | 16 | 1008.1 |
| 20260504220052 | 77 | 13 | 5.2 | 13.0 | 0.00 | 0.00 | 0.00 | 14 | 1008.2 |
| 20260504214547 | 78 | 0 | 1.7 | 12.2 | 0.00 | 0.00 | 0.00 | 17 | 1008.5 |
| 20260504213040 | 78 | 24 | 3.5 | 8.7 | 0.00 | 0.00 | 0.00 | 16 | 1008.5 |
| 20260504211538 | 77 | 355 | 5.2 | 13.9 | 0.00 | 0.00 | 0.00 | 18 | 1008.5 |
| 20260504210052 | 77 | 23 | 6.1 | 12.2 | 0.00 | 0.00 | 0.00 | 16 | 1008.6 |
| 20260504204546 | 77 | 24 | 4.3 | 10.4 | 0.00 | 0.00 | 0.00 | 19 | 1008.5 |
| 20260504203045 | 76 | 32 | 7.0 | 12.2 | 0.00 | 0.00 | 0.00 | 17 | 1008.6 |
| 20260504201544 | 77 | 351 | 1.7 | 10.4 | 0.00 | 0.00 | 0.00 | 16 | 1008.5 |
| 20260504200050 | 77 | 37 | 4.3 | 9.6 | 0.00 | 0.00 | 0.00 | 17 | 1008.6 |
| 20260504194538 | 77 | 21 | 1.7 | 9.6 | 0.00 | 0.00 | 0.00 | 20 | 1008.6 |
| 20260504193045 | 76 | 16 | 2.6 | 8.7 | 0.00 | 0.00 | 0.00 | 19 | 1008.8 |
| 20260504191552 | 75 | 46 | 4.3 | 10.4 | 0.00 | 0.00 | 0.00 | 17 | 1008.8 |
| 20260504190040 | 75 | 37 | 4.3 | 8.7 | 0.00 | 0.00 | 0.00 | 16 | 1008.8 |
| 20260504184540 | 75 | 44 | 1.7 | 9.6 | 0.00 | 0.00 | 0.00 | 19 | 1008.9 |
| 20260504183038 | 74 | 53 | 2.6 | 11.3 | 0.00 | 0.00 | 0.00 | 20 | 1009.0 |
| 20260504181544 | 74 | 355 | 3.5 | 13.9 | 0.00 | 0.00 | 0.00 | 20 | 1009.1 |
| 20260504180044 | 73 | 14 | 5.2 | 11.3 | 0.00 | 0.00 | 0.00 | 18 | 1009.0 |
| 20260504174539 | 73 | 13 | 3.5 | 10.4 | 0.00 | 0.00 | 0.00 | 22 | 1008.8 |
| 20260504173039 | 72 | 15 | 6.1 | 13.0 | 0.00 | 0.00 | 0.00 | 21 | 1008.7 |
| 20260504171538 | 71 | 25 | 3.5 | 12.2 | 0.00 | 0.00 | 0.00 | 24 | 1008.6 |